Weather History for Hamilton, ON

Change the Weather History Date:

Monday, August 5, 2013

  Actual Average Record
Temperature  
Mean Temperature 62 °F -  
Max Temperature 75 °F - - ()
Min Temperature 50 °F - - ()
Degree Days  
Heating Degree Days 2    
Growing Degree Days 12 (Base 50)    
Moisture  
Dew Point 51 °F    
Average Humidity 68    
Maximum Humidity 95    
Minimum Humidity 34    
Precipitation  
Precipitation 0.00 in - - ()
Sea Level Pressure  
Sea Level Pressure 30.05 in    
Wind  
Wind Speed 2 mph ()    
Max Wind Speed 4 mph    
Max Gust Speed -    
T = Trace of Precipitation, MM = Missing Value Source: Averaged Metar Reports

Daily Weather History Graph

Daily Weather History Graph

Search for Another Location

Airport:

Trip Planner

Search our weather history database for the weather conditions in past years. The results will help you decide how hot, cold, wet, or windy it might be!

Date:

Astronomy

Aug. 05, 2013 Rise Set
Actual Time 6:14 AM EDT 8:36 PM EDT
Civil Twilight 5:42 AM EDT 9:08 PM EDT
Nautical Twilight 5:02 AM EDT 9:47 PM EDT
Astronomical Twilight 4:18 AM EDT 10:31 PM EDT
Moon 5:08 AM EDT (8/5) 7:34 PM EDT (8/5)
Length of Visible Light 15h 25m
Length of Day
14h 21m
Waning Crescent, 1% of the Moon is Illuminated
Aug 5
Waning Crescent
Aug 6
New
Aug 14
First Quarter
Aug 20
Full
Aug 28
Last Quarter

Hourly Weather History & Observations

Time (EDT) Temp. Dew Point Humidity Pressure Visibility Wind Dir Wind Speed Gust Speed Precip Events Conditions
12:00 AM 57.0 °F 50.5 °F 79% 30.07 in - NW 3.5 mph - N/A   Unknown
1:00 AM 55.4 °F 49.8 °F 81% 30.07 in - West 2.3 mph - N/A   Unknown
2:00 AM 54 °F 50 °F 82% 30.06 in - West 1.2 mph - -  
2:00 AM 53.6 °F 50.2 °F 88% 30.06 in - West 1.2 mph - N/A   Unknown
3:00 AM 51.4 °F 49.5 °F 93% 30.07 in - WSW 1.2 mph - N/A   Unknown
4:00 AM 51.3 °F 49.6 °F 94% 30.07 in - West 1.2 mph - N/A   Unknown
5:00 AM 52.0 °F 50.5 °F 95% 30.07 in - West 3.5 mph - N/A   Unknown
6:00 AM 51.1 °F 48.9 °F 92% 30.09 in - West 2.3 mph - N/A   Unknown
7:00 AM 52.2 °F 50.7 °F 95% 30.09 in - Calm Calm - N/A   Unknown
8:00 AM 58 °F 54 °F 80% 30.09 in - SSW 1.2 mph - -  
8:00 AM 58.3 °F 53.6 °F 84% 30.09 in - SSW 1.2 mph - N/A   Unknown
9:00 AM 64.8 °F 54.5 °F 69% 30.10 in - West 3.5 mph - N/A   Unknown
10:00 AM 68.5 °F 54.7 °F 61% 30.09 in - SSW 2.3 mph - N/A   Unknown
11:00 AM 71.4 °F 51.3 °F 49% 30.08 in - South 3.5 mph - N/A   Unknown
12:00 PM 73.6 °F 52.9 °F 48% 30.07 in - South 3.5 mph - N/A   Unknown
1:00 PM 74.5 °F 52.0 °F 45% 30.05 in - SW 2.3 mph - N/A   Unknown
2:00 PM 74 °F 51 °F 34% 30.04 in - WSW 3.5 mph - -  
2:00 PM 73.8 °F 51.3 °F 45% 30.04 in - WSW 3.5 mph - N/A   Unknown
3:00 PM 72.5 °F 52.0 °F 48% 30.03 in - WSW 2.3 mph - N/A   Unknown
4:00 PM 73.8 °F 51.1 °F 45% 30.02 in - West 1.2 mph - N/A   Unknown
5:00 PM 71.2 °F 49.3 °F 46% 30.01 in - SSW 2.3 mph - N/A   Unknown
6:00 PM 70.9 °F 50.7 °F 49% 30.01 in - SSW 1.2 mph - N/A   Unknown
7:00 PM 71.1 °F 49.8 °F 47% 30.00 in - WSW 1.2 mph - N/A   Unknown
8:00 PM 66 °F 51 °F 48% 30.00 in - SW 3.5 mph - -  
8:00 PM 65.8 °F 50.7 °F 58% 30.00 in - SW 3.5 mph - N/A   Unknown
9:00 PM 59.9 °F 52.5 °F 77% 30.00 in - WNW 2.3 mph - N/A   Unknown
10:00 PM 57.0 °F 52.5 °F 85% 30.00 in - WNW 1.2 mph - N/A   Unknown
11:00 PM 57.2 °F 51.6 °F 82% 29.99 in - West 2.3 mph - N/A   Unknown